User: anonymous   Login
Location: Unspecified
(0.0000°N, 0.0000°E)
Time: 22:49:15
(UTC+00:00)
Language:

USA 202 - Orbit

View from above orbital plane
View from above orbital plane
View from above satellite
View from above satellite

Ground track
Ground track

The orbit data is extracted from the following two-line orbital elements,

1 33490U 09001A   19263.96925603 0.00000000  00000-0  00000-0 0    03
2 33490   5.5934  32.5603 0016745  12.0365 348.0290  1.00270000    02
Epoch (UTC): 20 September 2019 23:15:43
Eccentricity: 0.0016745
inclination: 5.5934°
perigee height: 35716 km
apogee height: 35857 km
right ascension of ascending node: 32.5603°
argument of perigee: 12.0365°
revolutions per day: 1.00270000
mean anomaly at epoch: 348.0290°
orbit number at epoch: 0

The dashed part of the orbit path shows where the satellite is in the earth's shadow,  

DLR